LA7IN Weather Reports


time (UTC)temp
F
wind
direction
speed
knots
gust
knots
rain 1hr
in
rain 24hr
in
rain mn
in
humidity
%
barometer
mb
20260506014520 38 35 0.0 2.6 0.00 0.00 0.00 79 1015.7
20260506013019 38 359 0.0 2.6 0.00 0.00 0.00 79 1015.6
20260506011528 38 341 0.9 3.5 0.00 0.00 0.00 79 1015.6
20260506010018 38 343 1.7 4.3 0.00 0.00 0.00 79 1015.5
20260506004530 38 333 1.7 4.3 0.00 0.00 0.00 80 1015.5
20260506003020 38 339 0.0 3.5 0.00 0.00 0.00 79 1015.6
20260506001515 39 327 0.9 2.6 0.00 0.00 0.00 79 1015.7
20260506000017 39 330 0.9 4.3 0.00 0.00 0.00 78 1015.7
20260505234511 39 312 1.7 3.5 0.00 0.00 0.00 77 1015.6
20260505233011 39 359 1.7 5.2 0.00 0.00 0.00 77 1015.6
20260505231508 39 297 1.7 7.0 0.00 0.00 0.00 77 1015.4
20260505230007 39 293 1.7 4.3 0.00 0.00 0.00 77 1015.5
20260505224506 39 297 1.7 3.5 0.00 0.00 0.00 76 1015.5
20260505223006 40 314 1.7 3.5 0.00 0.00 0.00 76 1015.6
20260505221505 40 315 0.9 7.0 0.00 0.00 0.00 75 1015.5
20260505220002 40 303 3.5 7.8 0.00 0.00 0.00 75 1015.7
20260505214502 40 316 2.6 5.2 0.00 0.00 0.00 75 1015.5
20260505213001 40 282 2.6 7.0 0.00 0.00 0.00 73 1015.5
20260505211501 40 284 1.7 8.7 0.00 0.00 0.00 73 1015.5
20260505210107 40 298 4.3 8.7 0.00 0.00 0.00 72 1015.6
20260505204601 40 340 3.5 7.8 0.00 0.00 0.00 74 1015.5
20260505203100 40 310 1.7 5.2 0.00 0.00 0.00 75 1015.5
20260505201601 41 326 3.5 8.7 0.00 0.00 0.00 74 1015.6
20260505200059 41 319 3.5 8.7 0.00 0.00 0.00 72 1015.6
20260505194601 41 299 1.7 7.8 0.00 0.00 0.00 72 1015.5
20260505193125 42 314 1.7 5.2 0.00 0.00 0.00 71 1015.4
20260505191604 42 324 4.3 9.6 0.00 0.00 0.00 71 1015.3
20260505190054 43 306 1.7 7.8 0.00 0.00 0.00 68 1015.2
20260505184556 43 309 1.7 8.7 0.00 0.00 0.00 67 1015.0
20260505183054 43 330 0.9 5.2 0.00 0.00 0.00 67 1015.0
20260505181554 42 296 2.6 7.0 0.00 0.00 0.00 72 1014.9
20260505180052 43 288 3.5 9.6 0.00 0.00 0.00 69 1015.0
20260505174552 45 289 1.7 7.0 0.00 0.00 0.00 67 1015.0
20260505173051 45 329 2.6 7.8 0.00 0.00 0.00 66 1014.9
20260505171552 45 318 0.9 9.6 0.00 0.00 0.00 66 1014.9
20260505170050 44 328 3.5 7.8 0.00 0.00 0.00 64 1014.9
20260505164550 45 345 3.5 10.4 0.00 0.00 0.00 66 1015.0
20260505163050 45 308 2.6 9.6 0.00 0.00 0.00 66 1014.9
20260505161549 44 263 4.3 11.3 0.00 0.00 0.00 67 1014.9
20260505153049 46 359 5.2 10.4 0.00 0.01 0.00 63 1015.0
20260505151546 46 272 3.5 10.4 0.00 0.01 0.00 66 1014.9
20260505124541 43 328 5.2 10.4 0.00 0.01 0.00 74 1015.0
20260505123052 44 261 6.1 11.3 0.00 0.01 0.00 69 1014.7
20260505121540 46 310 4.3 7.8 0.00 0.01 0.00 65 1014.7
20260505120050 44 328 3.5 10.4 0.00 0.01 0.00 68 1014.7
20260505114537 45 359 4.3 8.7 0.00 0.01 0.00 66 1014.8
20260505113036 45 322 2.6 7.8 0.00 0.01 0.00 65 1014.7
20260505111536 45 335 2.6 7.0 0.00 0.01 0.00 66 1014.6
20260505101534 43 315 1.7 4.3 0.00 0.01 0.00 70 1014.5
20260505100032 43 299 2.6 4.3 0.00 0.01 0.00 71 1014.6
20260505094530 42 320 1.7 5.2 0.00 0.01 0.00 70 1014.6
20260505093030 42 320 2.6 7.0 0.00 0.01 0.00 68 1014.6
20260505091531 43 324 1.7 7.8 0.00 0.01 0.00 66 1014.5
20260505090026 44 311 1.7 3.5 0.00 0.01 0.00 61 1014.4
20260505084540 45 324 0.0 3.5 0.00 0.01 0.00 62 1014.3
20260505083041 44 350 0.0 2.6 0.00 0.01 0.00 62 1014.2
20260505081525 44 354 0.9 4.3 0.00 0.01 0.00 63 1014.1
20260505080032 43 323 0.0 4.3 0.00 0.01 0.00 63 1014.0
20260505074519 43 343 0.0 2.6 0.00 0.01 0.00 65 1014.0
20260505073024 42 354 0.9 2.6 0.00 0.01 0.00 69 1014.0
20260505071510 41 293 0.0 3.5 0.00 0.01 0.00 71 1013.9
20260505070008 41 322 0.0 1.7 0.00 0.01 0.00 75 1013.9
20260505064505 40 322 0.0 2.6 0.00 0.01 0.00 76 1014.0
20260505063003 40 325 0.0 1.7 0.00 0.01 0.00 77 1014.0
20260505061502 39 339 0.9 2.6 0.00 0.01 0.00 79 1014.1
20260505060104 39 339 0.0 2.6 0.00 0.01 0.00 83 1014.2
20260505054601 38 339 0.0 1.7 0.00 0.01 0.00 85 1014.1
20260505053059 37 135 0.0 2.6 0.00 0.01 0.00 86 1014.0
20260505051557 37 145 0.0 0.0 0.00 0.01 0.00 87 1014.1
20260505041601 34 347 0.0 1.7 0.00 0.01 0.00 87 1013.4
20260505040055 34 347 0.0 0.0 0.00 0.01 0.00 87 1013.3
20260505034550 33 346 0.0 0.0 0.00 0.01 0.00 86 1013.3
20260505033049 33 347 0.0 0.0 0.00 0.01 0.00 85 1013.6
20260505031548 34 346 0.0 0.0 0.00 0.01 0.00 85 1013.5
20260505030105 34 359 0.0 0.9 0.00 0.01 0.00 84 1013.4
20260505024549 34 346 0.0 0.0 0.00 0.01 0.00 83 1013.5